User: anonymous
Location: Red Shale Campground
(45.5700°N, 106.1600°W)
Time: 22:23:25
(UTC-06:00)
Language:

FENGYUN 3A - Orbit

View from above orbital plane
View from above orbital plane
View from above satellite
View from above satellite

Ground track
Ground track

The orbit data is extracted from the following two-line orbital elements,

1 32958U 08026A   14274.70750490  .00000090  00000-0  62999-4 0  4154
2 32958 098.5433 329.8924 0008876 270.1555 089.8605 14.19473906328959
Epoch (UTC): 01 October 2014 16:58:48
Eccentricity: 0.0008876
inclination: 98.5433°
perigee height: 821 km
apogee height: 833 km
right ascension of ascending node: 329.8924°
argument of perigee: 270.1555°
revolutions per day: 14.19473906
mean anomaly at epoch: 89.8605°
orbit number at epoch: 32895

The dashed part of the orbit path shows where the satellite is in the earth's shadow,  

DLR